This demonstration page uses our WeatherBlox Daily Observations layout. Learn more.

Left ArrowRight Arrow

34.16533, -84.80231

Hourly Observations for October 27, 2020

Temp ( °F °C ) Dew Point ( °F °C ) Humidity (%) Winds ( mph kmh ) Pressure ( in mb ) Visibility ( mi km ) Precip ( " mm )
12:53 am 00:53 Cloudy 67 19.4 62 16.7 84 84 ESE 3 6 30.13 1020 10 16 0.00 0.00
1:53 am 01:53 Cloudy 67 19.4 62 16.7 84 84 ESE 6 9 30.13 1020 10 16 0.00 0.00
2:53 am 02:53 Cloudy 66 18.9 62 16.7 87 87 SE 5 7 30.13 1020 10 16 0.00 0.00
3:53 am 03:53 Cloudy 67 19.4 63 17.2 87 87 Calm 30.14 1021 10 16 0.00 0.00
4:53 am 04:53 Cloudy 66 18.9 63 17.2 90 90 Calm 30.13 1020 10 16 0.00 0.00
5:53 am 05:53 Cloudy 67 19.4 63 17.2 87 87 Calm 30.14 1021 9 14 0.00 0.00
6:27 am 06:27 Cloudy 66 18.9 63 17.2 90 90 Calm 30.17 1022 7 11 0.00 0.00
6:53 am 06:53 Cloudy with Mist and Fog 66 18.9 63 17.2 90 90 Calm 30.15 1021 3 5 0.00 0.00
7:53 am 07:53 Cloudy 66 18.9 63 17.2 90 90 Calm 30.15 1021 7 11 0.00 0.00
8:01 am 08:01 Cloudy 66 18.9 63 17.2 90 90 E 3 6 30.17 1022 7 11 0.00 0.00
8:53 am 08:53 Cloudy 66 18.9 63 17.2 90 90 Calm 30.17 1022 7 11 0.00 0.00
9:02 am 09:02 Cloudy 67 19.4 63 17.2 87 87 ESE 3 6 30.18 1022 8 13 0.00 0.00
9:53 am 09:53 Cloudy 67 19.4 64 17.8 91 91 E 5 7 30.18 1022 10 16 0.00 0.00
10:03 am 10:03 Cloudy 68 20 64 17.8 87 87 E 5 7 30.19 1022 10 16 0.00 0.00
10:53 am 10:53 Cloudy 69 20.6 64 17.8 84 84 E 5 7 30.18 1022 10 16 0.00 0.00
11:53 am 11:53 Cloudy 70 21.1 64 17.8 82 82 VRB 3 6 30.17 1022 10 16 0.00 0.00
12:53 pm 12:53 Cloudy 71 21.7 64 17.8 79 79 ENE 5 7 30.15 1021 10 16 0.00 0.00
1:53 pm 13:53 Cloudy 73 22.8 65 18.3 76 76 NE 7 11 30.13 1020 10 16 0.00 0.00
2:24 pm 14:24 Cloudy 73 22.8 65 18.3 76 76 SE 5 7 30.12 1020 10 16 0.00 0.00
2:53 pm 14:53 Cloudy 74 23.3 65 18.3 74 74 S 5 7 30.11 1020 10 16 0.00 0.00
3:53 pm 15:53 Cloudy 75 23.9 66 18.9 74 74 Calm 30.09 1019 10 16 0.00 0.00
4:53 pm 16:53 Cloudy 74 23.3 66 18.9 76 76 SSE 8 13 30.10 1019 10 16 0.00 0.00
5:53 pm 17:53 Cloudy 74 23.3 66 18.9 76 76 Calm 30.09 1019 10 16 0.00 0.00
6:18 pm 18:18 Cloudy 73 22.8 66 18.9 79 79 ENE 3 6 30.08 1019 10 16 0.00 0.00
6:53 pm 18:53 Mostly Clear 71 21.7 66 18.9 84 84 Calm 30.07 1018 10 16 0.00 0.00
7:53 pm 19:53 Mostly Cloudy 68 20 66 18.9 93 93 Calm 30.09 1019 10 16 0.00 0.00
8:53 pm 20:53 Cloudy 70 21.1 66 18.9 87 87 Calm 30.10 1019 10 16 0.00 0.00
9:53 pm 21:53 Cloudy 70 21.1 66 18.9 87 87 Calm 30.11 1020 10 16 0.00 0.00
10:35 pm 22:35 Mostly Cloudy 70 21.1 66 18.9 87 87 Calm 30.12 1020 10 16 0.00 0.00
10:53 pm 22:53 Mostly Clear 70 21.1 65 18.3 84 84 Calm 30.11 1020 10 16 0.00 0.00
11:49 pm 23:49 Cloudy 70 21 66 19 88 88 Calm 30.12 1020 10 16 0.00 0.00
11:53 pm 23:53 Cloudy 70 21.1 66 18.9 87 87 NE 3 6 30.11 1020 10 16 0.00 0.00

Powered by AerisWeather